This demonstration page uses our WeatherBlox Daily Observations layout. Learn more.

Hourly Observations for December 20, 2019

Temp ( °F °C ) Dew Point ( °F °C ) Humidity (%) Winds ( mph kmh ) Pressure ( in mb ) Visibility ( mi km ) Precip ( " mm )
12:54 am 00:54 Clear 32 0 20 -6.7 61 61 SSE 8 13 30.15 1021 10 16.0934 0 0
1:54 am 01:54 Clear 31 -0.6 20 -6.7 64 64 SSE 9 15 30.15 1021 10 16.0934 0 0
2:54 am 02:54 Clear 29 -1.7 19 -7.2 66 66 S 8 13 30.16 1021 10 16.0934 0 0
3:54 am 03:54 Clear 30 -1.1 20 -6.7 66 66 S 9 15 30.15 1021 10 16.0934 0 0
4:54 am 04:54 Clear 30 -1.1 20 -6.7 66 66 S 7 11 30.16 1022 10 16.0934 0 0
5:54 am 05:54 Clear 31 -0.6 20 -6.7 64 64 S 6 9 30.17 1022 10 16.0934 0 0
6:54 am 06:54 Clear 32 0 21 -6.1 64 64 SE 5 7 30.2 1023 10 16.0934 0 0
7:54 am 07:54 Sunny 31 -0.6 21 -6.1 67 67 Calm 30.21 1023 10 16.0934 0 0
8:54 am 08:54 Sunny 27 -2.8 20 -6.7 75 75 N 3 6 30.24 1024 10 16.0934 0 0
9:54 am 09:54 Sunny 35 1.7 23 -5 61 61 Calm 30.25 1024 10 16.0934 0 0
10:54 am 10:54 Sunny 42 5.6 24 -4.4 49 49 SSW 9 15 30.24 1024 10 16.0934 0 0
11:54 am 11:54 Sunny 45 7.2 23 -5 42 42 SW 7 11 30.23 1024 10 16.0934 0 0
12:54 pm 12:54 Sunny 47 8.3 22 -5.6 37 37 SSW 5 7 30.21 1023 10 16.0934 0 0
1:54 pm 13:54 Sunny 48 8.9 23 -5 37 37 W 6 9 30.21 1023 10 16.0934 0 0
2:54 pm 14:54 Sunny 48 8.9 23 -5 37 37 W 5 7 30.22 1023 10 16.0934 0 0
3:54 pm 15:54 Sunny 47 8.3 23 -5 39 39 W 7 11 30.24 1024 10 16.0934 0 0
4:54 pm 16:54 Sunny 45 7.2 23 -5 42 42 W 3 6 30.26 1025 10 16.0934 0 0
5:54 pm 17:54 Clear 32 0 20 -6.7 61 61 Calm 30.29 1026 10 16.0934 0 0
6:54 pm 18:54 Clear 29 -1.7 21 -6.1 72 72 Calm 30.3 1026 10 16.0934 0 0
7:54 pm 19:54 Clear 27 -2.8 19 -7.2 72 72 NNW 5 7 30.32 1027 10 16.0934 0 0
8:54 pm 20:54 Clear 25 -3.9 18 -7.8 75 75 Calm 30.32 1027 10 16.0934 0 0
9:54 pm 21:54 Clear 23 -5 19 -7.2 85 85 Calm 30.32 1027 10 16.0934 0 0
10:54 pm 22:54 Clear 22 -5.6 17 -8.3 82 82 Calm 30.31 1027 10 16.0934 0 0
11:54 pm 23:54 Clear 22 -5.6 16 -8.9 78 78 N 6 9 30.32 1027 10 16.0934 0 0

Powered by AerisWeather